Location: Fredericton
(45.9636°N, 66.6431°W)
Time: 02:40:48
(UTC-03:00)

ISS - Visible Passes

Search period start: 23 October 2021 00:00
Search period end: 02 November 2021 00:00
Orbit: 417 x 423 km, 51.6° (Epoch: 22 October)

Date Brightness Start Highest point End Pass type
(mag) Time Alt. Az. Time Alt. Az. Time Alt. Az.
23 Oct -1.0 05:53:20 11° S 05:55:07 16° SE 05:57:14 10° E visible
24 Oct -3.3 06:41:41 15° SW 06:44:19 61° SSE 06:47:39 10° ENE visible
25 Oct -2.7 05:56:51 38° SSE 05:57:08 39° SE 06:00:18 10° ENE visible
26 Oct -0.7 05:11:52 16° E 05:11:52 16° E 05:12:49 10° E visible
26 Oct -3.7 06:44:51 25° W 06:46:38 61° NNW 06:49:58 10° ENE visible
27 Oct -3.5 05:59:46 65° NE 05:59:46 65° NE 06:02:43 10° ENE visible
28 Oct -0.7 05:14:34 16° ENE 05:14:34 16° ENE 05:15:25 10° ENE visible
28 Oct -2.9 06:47:33 24° WNW 06:49:03 37° NNW 06:52:13 10° ENE visible
29 Oct -2.8 06:02:18 39° NNE 06:02:18 39° NNE 06:04:56 10° ENE visible
30 Oct -0.7 05:16:59 15° NE 05:16:59 15° NE 05:17:39 10° ENE visible
30 Oct -2.5 06:49:58 20° NW 06:51:32 30° N 06:54:35 10° ENE visible
31 Oct -2.3 06:04:37 30° NNE 06:04:37 30° NNE 06:07:10 10° ENE visible
01 Nov -0.6 05:19:15 14° NE 05:19:15 14° NE 05:19:49 10° ENE visible
01 Nov -2.5 06:52:13 19° NW 06:54:01 31° N 06:57:05 10° ENE visible
